Location: Izdebno
(52.6670°N, 16.2170°E)
Time: 02:49:43
(UTC+02:00)

Transit 2A - Pass Details

Date: 26 February 2024
Orbit: 596 x 956 km, 66.7° (Epoch: 21 April)

Event Time Altitude Azimuth Distance (km) Brightness Sun altitude
Rises 00:17:46 0° 309° (NW) 2,877 - -46.3°
Reaches altitude 10° 00:20:56 10° 334° (NNW) 2,008 - -46.3°
Maximum altitude 00:23:30 15° 9° (N) 1,751 - -46.2°
Drops below altitude 10° 00:26:09 10° 43° (NE) 2,096 - -46.2°
Sets 00:29:34 0° 67° (ENE) 3,084 - -46.1°
